星链-30128 (STARLINK-30128 )

导读

STARLINK-30128是美国太空探索技术公司星链星座的组网卫星,于2023年6月4日发射入轨,属于Starlink Group 5-11星链任务批次。该卫星为低轨互联网通信卫星,依托星链低轨星座架构,为全球多地提供高速低延迟互联网接入服务,进一步扩充了星链系统的覆盖范围与服务容量。

基本信息
目录编号:
56832
目录名称:
STARLINK-30128
国际标识:
2023-079K
轨道中心:
EARTH
卫星名称:
星链-30128
卫星全名:
星链-30128 (STARLINK-30128 )
卫星状态:
在轨 (已飞行1189 天)
发射日期:
2023-06-04 UTC
国别 :
美国 (US)
星等 :
--
轨道信息
数据来源 国际轨道数据 AOE轨道数据
星历时间 2026-09-05T11:01:40+0800
13小时前
查看轨道信息
2026-09-03T23:00:00+0800
2天前
查看轨道信息
半长轴 6861.175km 6861.175km
偏心率 0.0001271 0.0001719
轨道倾角 43.003° 43.004°
近地点辐角 269.139° 230.464°
升交点赤经 147.875° 156.356°
平近点角 90.932° 144.638°
近地点 482.165km 481.858km
远地点 483.911km 484.218km
周期 94.267分钟 94.267分钟
每日圈数 15.275839 15.27584
详细信息
固有亮度:
5
最大亮度:
0.5
卫星平台:
Starlink v2.0 mini
覆盖范围:
全球
运营商:
太空探索技术公司
运营商所在国:
美国
制造商(研发单位):
太空探索技术公司
制造商所在国:
美国
使用方式:
暂无
卫星简介
星链(Starlink)计划是由太空探索技术公司(SpaceX)提出的一个巨型低轨卫星互联网星座项目,计划在2019年至2024年间在太空搭建由约1.2万颗卫星组成的“星链”网络,其中1584颗将部署在地球上空550千米处的近地轨道,并从2020年开始工作。该卫星仍在工作。
2D轨道图
3D轨道图
轨道高度分析图
轨道倾角分析图
轨道综合分析图
查看轨道综合分析图
交会数据列表
事件ID 空间交会对象 最接近时刻(TCA) 交会距离 交会风险概率(CRP) 交会风险指数(CRI) 操作
CDM_260905-193005-683205-826422
BRO-11 (58264)
2026-09-05T
19:30:38+0000
1.672 km
极远距离
4.65225E-6 低风险 0.48
CDM_260908-001205-683206-717721
2026-09-08T
00:12:56+0000
1.984 km
极远距离
2.203148E-6 低风险 0.42
CDM_260907-223805-683206-717721
2026-09-07T
22:38:47+0000
1.991 km
极远距离
2.183233E-6 低风险 0.42
CDM_260905-150105-683206-403121
2026-09-05T
15:01:10+0000
2.258 km
极远距离
1.829267E-6 低风险 0.4
CDM_260903-170405-319705-683221
2026-09-03T
17:04:55+0000
2.664 km
极远距离
1.518347E-6 低风险 0.39